Location: Cubitt Town
(51.4833°N, 0.0000°E)
Time: 23:28:29
(UTC+00:00)

Cosmos 1937 Rocket - Pass Details

Date: 15 May 2026
Orbit: 743 x 774 km, 74.0° (Epoch: 6 June)

Event Time Altitude Azimuth Distance (km) Brightness Sun altitude
Rises 22:19:45 0° 337° (NNW) 3,209 8.6 -16.4°
Reaches altitude 10° 22:22:13 10° 344° (NNW) 2,277 7.3 -16.5°
Maximum altitude 22:27:11 47° 58° (ENE) 984 4.1 -16.8°
Enters shadow 22:30:09 23° 122° (ESE) 1,567 4.7 -17.0°
